Time,TemperatureF,DewpointF,PressureIn,WindDirection,WindDirectionDegrees,WindSpeedMPH,WindSpeedGustMPH,Humidity,HourlyPrecipIn,Conditions,Clouds,dailyrainin,SoftwareType,DateUTC
2013-04-14 00:46:00,37.7,30.8,30.02,West,280,0.0,3.0,76,0.00,,---,0.00,VWS V14.01,2013-04-14 04:46:00,
2013-04-14 01:31:00,37.5,31.6,30.03,West,280,0.0,0.0,79,0.00,,---,0.00,VWS V14.01,2013-04-14 05:31:00,
2013-04-14 01:46:00,37.5,32.2,30.04,West,280,0.0,1.0,81,0.00,,---,0.00,VWS V14.01,2013-04-14 05:46:00,
2013-04-14 02:01:00,37.2,32.2,30.04,West,280,0.0,1.0,82,0.00,,---,0.00,VWS V14.01,2013-04-14 06:01:00,
2013-04-14 02:16:00,37.1,31.8,30.05,West,280,0.0,0.0,81,0.00,,---,0.00,VWS V14.01,2013-04-14 06:16:00,
2013-04-14 03:31:00,36.6,31.9,30.05,West,280,0.0,0.0,83,0.00,,---,0.00,VWS V14.01,2013-04-14 07:31:00,
2013-04-14 03:46:00,36.5,31.8,30.05,West,280,0.0,0.0,83,0.00,,---,0.00,VWS V14.01,2013-04-14 07:46:00,
2013-04-14 04:01:00,36.5,31.5,30.05,West,279,0.0,2.0,82,0.00,,---,0.00,VWS V14.01,2013-04-14 08:01:00,
2013-04-14 04:16:00,36.5,30.9,30.04,West,280,2.0,3.0,80,0.00,,---,0.00,VWS V14.01,2013-04-14 08:16:00,
2013-04-14 04:31:00,36.7,30.8,30.05,West,280,1.0,3.0,79,0.00,,---,0.00,VWS V14.01,2013-04-14 08:31:00,
2013-04-14 05:01:00,36.9,30.7,30.05,West,280,1.0,2.0,78,0.00,,---,0.00,VWS V14.01,2013-04-14 09:01:00,
2013-04-14 05:16:00,36.7,30.5,30.06,West,280,0.0,3.0,78,0.00,,---,0.00,VWS V14.01,2013-04-14 09:16:00,
2013-04-14 05:31:00,36.8,30.0,30.06,West,280,2.0,3.0,76,0.00,,---,0.00,VWS V14.01,2013-04-14 09:31:00,
2013-04-14 06:01:00,37.0,29.5,30.07,West,280,2.0,4.0,74,0.00,,---,0.00,VWS V14.01,2013-04-14 10:01:00,
2013-04-14 06:16:00,37.0,29.2,30.07,West,280,2.0,5.0,73,0.00,,---,0.00,VWS V14.01,2013-04-14 10:16:00,
2013-04-14 06:31:00,37.2,29.4,30.07,West,280,0.0,5.0,73,0.00,,---,0.00,VWS V14.01,2013-04-14 10:31:00,
2013-04-14 06:46:00,37.1,29.6,30.06,ENE,77,1.0,4.0,74,0.00,,---,0.00,VWS V14.01,2013-04-14 10:46:00,
2013-04-14 07:16:00,36.9,30.4,30.07,ENE,68,2.0,5.0,77,0.00,,---,0.00,VWS V14.01,2013-04-14 11:16:00,
2013-04-14 07:31:00,36.9,30.0,30.06,ENE,69,5.0,8.0,76,0.00,,---,0.00,VWS V14.01,2013-04-14 11:31:00,
2013-04-14 08:16:00,37.5,29.6,30.05,East,86,6.0,9.0,73,0.00,,---,0.00,VWS V14.01,2013-04-14 12:16:00,
2013-04-14 08:31:00,37.8,29.3,30.05,ENE,71,1.0,11.0,71,0.01,,---,0.01,VWS V14.01,2013-04-14 12:31:00,
2013-04-14 09:31:00,39.7,29.7,30.04,ESE,114,11.0,13.0,67,0.01,,---,0.01,VWS V14.01,2013-04-14 13:31:00,
2013-04-14 09:46:00,39.6,29.9,30.04,East,97,7.0,11.0,68,0.00,,---,0.01,VWS V14.01,2013-04-14 13:46:00,
2013-04-14 10:16:00,39.9,30.2,30.04,ESE,107,10.0,13.0,68,0.00,,---,0.01,VWS V14.01,2013-04-14 14:16:00,
2013-04-14 10:46:00,40.2,30.9,30.05,ESE,123,9.0,15.0,69,0.00,,---,0.01,VWS V14.01,2013-04-14 14:46:00,
2013-04-14 11:31:00,41.7,33.7,30.04,ESE,108,7.0,14.0,73,0.00,,---,0.01,VWS V14.01,2013-04-14 15:31:00,
2013-04-14 11:46:00,42.7,34.3,30.02,East,85,8.0,16.0,72,0.00,,---,0.01,VWS V14.01,2013-04-14 15:46:00,
2013-04-14 12:16:00,44.7,35.2,30.01,ESE,115,13.0,17.0,69,0.00,,---,0.01,VWS V14.01,2013-04-14 16:16:00,
2013-04-14 12:31:00,45.6,36.0,30.00,East,100,11.0,19.0,69,0.00,,---,0.01,VWS V14.01,2013-04-14 16:31:00,
2013-04-14 12:46:00,47.0,37.0,29.99,ESE,110,11.0,18.0,68,0.00,,---,0.01,VWS V14.01,2013-04-14 16:46:00,
2013-04-14 14:16:00,52.4,40.6,29.94,SE,144,6.0,19.0,64,0.01,,---,0.02,VWS V14.01,2013-04-14 18:16:00,
2013-04-14 14:31:00,53.5,41.2,29.94,SSE,148,6.0,18.0,63,0.00,,---,0.02,VWS V14.01,2013-04-14 18:31:00,
2013-04-14 14:46:00,54.7,42.4,29.93,ESE,107,5.0,19.0,63,0.00,,---,0.02,VWS V14.01,2013-04-14 18:46:00,
2013-04-14 15:01:00,55.0,42.2,29.92,South,190,11.0,19.0,62,0.00,,---,0.02,VWS V14.01,2013-04-14 19:01:00,
2013-04-14 15:16:00,55.9,43.5,29.91,ESE,102,5.0,19.0,63,0.00,,---,0.02,VWS V14.01,2013-04-14 19:16:00,
2013-04-14 15:46:00,56.7,43.8,29.90,ESE,111,7.0,22.0,62,0.00,,---,0.02,VWS V14.01,2013-04-14 19:46:00,
2013-04-14 16:31:00,58.8,45.4,29.87,SE,132,9.0,19.0,61,0.00,,---,0.02,VWS V14.01,2013-04-14 20:31:00,
2013-04-14 17:46:00,60.1,46.6,29.85,ESE,107,16.0,25.0,61,0.00,,---,0.02,VWS V14.01,2013-04-14 21:46:00,
2013-04-14 19:01:00,59.3,47.5,29.84,SE,126,5.0,23.0,65,0.01,,---,0.03,VWS V14.01,2013-04-14 23:01:00,
2013-04-14 19:46:00,58.4,47.5,29.82,East,90,11.0,20.0,67,0.00,,---,0.03,VWS V14.01,2013-04-14 23:46:00,
2013-04-14 20:01:00,57.5,47.4,29.82,ESE,109,7.0,18.0,69,0.00,,---,0.03,VWS V14.01,2013-04-15 00:01:00,
2013-04-14 20:31:00,56.6,47.3,29.82,East,101,10.0,19.0,71,0.00,,---,0.03,VWS V14.01,2013-04-15 00:31:00,
2013-04-14 21:01:00,55.8,46.9,29.82,ESE,107,9.0,18.0,72,0.00,,---,0.03,VWS V14.01,2013-04-15 01:01:00,
2013-04-14 22:01:00,54.0,46.3,29.82,ESE,117,8.0,15.0,75,0.00,,---,0.03,VWS V14.01,2013-04-15 02:01:00,
2013-04-14 22:16:00,53.9,46.2,29.82,ESE,115,10.0,18.0,75,0.00,,---,0.03,VWS V14.01,2013-04-15 02:16:00,
2013-04-14 22:31:00,53.8,46.1,29.82,SE,139,12.0,17.0,75,0.00,,---,0.03,VWS V14.01,2013-04-15 02:31:00,
2013-04-14 23:01:00,54.0,46.3,29.81,ESE,121,4.0,17.0,75,0.01,,---,0.04,VWS V14.01,2013-04-15 03:01:00,
2013-04-14 23:16:00,53.9,46.2,29.80,ESE,103,7.0,17.0,75,0.01,,---,0.04,VWS V14.01,2013-04-15 03:16:00,
2013-04-14 23:31:00,54.1,46.4,29.80,SE,128,8.0,22.0,75,0.01,,---,0.04,VWS V14.01,2013-04-15 03:31:00,
2013-04-14 23:46:00,54.1,46.0,29.80,ESE,103,8.0,14.0,74,0.01,,---,0.04,VWS V14.01,2013-04-15 03:46:00,